Time,TemperatureF,DewpointF,PressureIn,WindDirection,WindDirectionDegrees,WindSpeedMPH,WindSpeedGustMPH,Humidity,HourlyPrecipIn,Conditions,Clouds,dailyrainin,SoftwareType,DateUTC
2015-08-30 00:04:00,73.0,68.0,30.06,SSW,208,2.0,5.0,84,-99.99,,,-99.99,,2015-08-30 04:04:00,
2015-08-30 00:13:00,73.0,68.0,30.06,SW,219,2.0,5.0,84,-99.99,,,-99.99,,2015-08-30 04:13:00,
2015-08-30 00:23:00,72.0,67.0,30.06,WSW,238,1.0,4.0,85,-99.99,,,-99.99,,2015-08-30 04:23:00,
2015-08-30 00:34:00,72.0,67.0,30.07,SSE,166,0.0,2.0,85,-99.99,,,-99.99,,2015-08-30 04:34:00,
2015-08-30 00:44:00,72.0,68.0,30.07,SSE,161,1.0,2.0,86,-99.99,,,-99.99,,2015-08-30 04:44:00,
2015-08-30 00:55:00,72.0,68.0,30.07,South,180,1.0,3.0,86,-99.99,,,-99.99,,2015-08-30 04:55:00,
2015-08-30 01:13:00,71.0,67.0,30.07,South,180,0.0,2.0,87,-99.99,,,-99.99,,2015-08-30 05:13:00,
2015-08-30 01:24:00,71.0,67.0,30.07,South,180,0.0,1.0,87,-99.99,,,-99.99,,2015-08-30 05:24:00,
2015-08-30 01:33:00,71.0,67.0,30.07,South,180,0.0,1.0,88,-99.99,,,-99.99,,2015-08-30 05:33:00,
2015-08-30 01:44:00,70.0,66.0,30.07,South,170,0.0,3.0,88,-99.99,,,-99.99,,2015-08-30 05:44:00,
2015-08-30 01:53:00,70.0,66.0,30.07,South,188,0.0,4.0,88,-99.99,,,-99.99,,2015-08-30 05:53:00,
2015-08-30 02:04:00,70.0,66.0,30.07,South,171,0.0,2.0,88,-99.99,,,-99.99,,2015-08-30 06:04:00,
2015-08-30 02:13:00,70.0,66.0,30.07,SSE,161,1.0,3.0,88,-99.99,,,-99.99,,2015-08-30 06:13:00,
2015-08-30 02:23:00,70.0,66.0,30.07,SSE,161,0.0,2.0,88,-99.99,,,-99.99,,2015-08-30 06:23:00,
2015-08-30 02:36:00,70.0,67.0,30.07,SSE,161,0.0,1.0,89,-99.99,,,-99.99,,2015-08-30 06:36:00,
2015-08-30 02:44:00,69.0,66.0,30.07,SSE,161,0.0,0.0,89,-99.99,,,-99.99,,2015-08-30 06:44:00,
2015-08-30 03:04:00,69.0,66.0,30.06,South,181,0.0,2.0,90,-99.99,,,-99.99,,2015-08-30 07:04:00,
2015-08-30 03:13:00,69.0,66.0,30.06,SSW,200,0.0,3.0,90,-99.99,,,-99.99,,2015-08-30 07:13:00,
2015-08-30 03:23:00,69.0,66.0,30.06,South,177,0.0,3.0,90,-99.99,,,-99.99,,2015-08-30 07:23:00,
2015-08-30 03:33:00,69.0,66.0,30.06,SSW,200,0.0,3.0,90,-99.99,,,-99.99,,2015-08-30 07:33:00,
2015-08-30 03:53:00,69.0,66.0,30.06,SSW,198,0.0,0.0,89,-99.99,,,-99.99,,2015-08-30 07:53:00,
2015-08-30 04:03:00,68.0,65.0,30.06,SSW,198,0.0,0.0,90,-99.99,,,-99.99,,2015-08-30 08:03:00,
2015-08-30 04:13:00,68.0,65.0,30.06,SSW,198,0.0,0.0,91,-99.99,,,-99.99,,2015-08-30 08:13:00,
2015-08-30 04:23:00,68.0,65.0,30.06,SSW,198,0.0,0.0,91,-99.99,,,-99.99,,2015-08-30 08:23:00,
2015-08-30 04:33:00,68.0,65.0,30.06,SSW,198,0.0,0.0,91,-99.99,,,-99.99,,2015-08-30 08:33:00,
2015-08-30 04:44:00,68.0,65.0,30.06,SSW,198,0.0,0.0,91,-99.99,,,-99.99,,2015-08-30 08:44:00,
2015-08-30 04:53:00,68.0,65.0,30.06,SSW,198,0.0,0.0,91,-99.99,,,-99.99,,2015-08-30 08:53:00,
2015-08-30 05:03:00,68.0,66.0,30.06,SSW,195,1.0,3.0,92,-99.99,,,-99.99,,2015-08-30 09:03:00,
2015-08-30 05:13:00,68.0,66.0,30.06,SSW,207,2.0,5.0,92,-99.99,,,-99.99,,2015-08-30 09:13:00,
2015-08-30 05:23:00,68.0,66.0,30.06,SSW,194,2.0,4.0,92,-99.99,,,-99.99,,2015-08-30 09:23:00,
2015-08-30 05:33:00,68.0,66.0,30.06,South,183,2.0,5.0,92,-99.99,,,-99.99,,2015-08-30 09:33:00,
2015-08-30 05:44:00,68.0,66.0,30.06,SSW,192,1.0,4.0,92,-99.99,,,-99.99,,2015-08-30 09:44:00,
2015-08-30 05:53:00,68.0,66.0,30.07,SSW,192,0.0,2.0,92,-99.99,,,-99.99,,2015-08-30 09:53:00,
2015-08-30 06:04:00,68.0,66.0,30.07,SSW,192,0.0,2.0,92,-99.99,,,-99.99,,2015-08-30 10:04:00,
2015-08-30 06:13:00,68.0,66.0,30.07,SSW,196,1.0,-999.0,92,-99.99,,,-99.99,,2015-08-30 10:13:00,
2015-08-30 06:24:00,68.0,66.0,30.07,SSW,202,1.0,4.0,92,-99.99,,,-99.99,,2015-08-30 10:24:00,
2015-08-30 06:33:00,68.0,66.0,30.07,South,180,2.0,5.0,92,-99.99,,,-99.99,,2015-08-30 10:33:00,
2015-08-30 06:44:00,68.0,66.0,30.08,SW,220,1.0,6.0,92,-99.99,,,-99.99,,2015-08-30 10:44:00,
2015-08-30 06:54:00,68.0,66.0,30.08,SSW,206,0.0,4.0,92,-99.99,,,-99.99,,2015-08-30 10:54:00,
2015-08-30 07:04:00,68.0,66.0,30.08,SSW,213,1.0,3.0,92,-99.99,,,-99.99,,2015-08-30 11:04:00,
2015-08-30 07:13:00,68.0,66.0,30.09,SSE,165,2.0,3.0,92,-99.99,,,-99.99,,2015-08-30 11:13:00,
2015-08-30 07:23:00,68.0,66.0,30.09,SSW,192,1.0,4.0,93,-99.99,,,-99.99,,2015-08-30 11:23:00,
2015-08-30 07:34:00,68.0,66.0,30.09,South,173,1.0,5.0,93,-99.99,,,-99.99,,2015-08-30 11:34:00,
2015-08-30 07:44:00,67.0,65.0,30.09,SSW,195,2.0,4.0,93,-99.99,,,-99.99,,2015-08-30 11:44:00,
2015-08-30 07:54:00,67.0,65.0,30.09,South,175,1.0,4.0,93,-99.99,,,-99.99,,2015-08-30 11:54:00,
2015-08-30 08:04:00,67.0,65.0,30.09,South,188,2.0,5.0,93,-99.99,,,-99.99,,2015-08-30 12:04:00,
2015-08-30 08:13:00,68.0,66.0,30.09,South,189,2.0,5.0,93,-99.99,,,-99.99,,2015-08-30 12:13:00,
2015-08-30 08:24:00,68.0,66.0,30.09,SSW,203,2.0,5.0,93,-99.99,,,-99.99,,2015-08-30 12:24:00,
2015-08-30 08:34:00,68.0,66.0,30.10,SSW,206,3.0,6.0,93,-99.99,,,-99.99,,2015-08-30 12:34:00,
2015-08-30 08:44:00,68.0,66.0,30.10,SSW,209,3.0,5.0,93,-99.99,,,-99.99,,2015-08-30 12:44:00,
2015-08-30 08:54:00,68.0,66.0,30.10,SSW,198,2.0,4.0,93,-99.99,,,-99.99,,2015-08-30 12:54:00,
2015-08-30 09:03:00,68.0,66.0,30.10,South,176,2.0,4.0,93,-99.99,,,-99.99,,2015-08-30 13:03:00,
2015-08-30 09:13:00,68.0,66.0,30.10,South,182,2.0,5.0,93,-99.99,,,-99.99,,2015-08-30 13:13:00,
2015-08-30 09:23:00,68.0,66.0,30.11,South,170,2.0,5.0,92,-99.99,,,-99.99,,2015-08-30 13:23:00,
2015-08-30 09:36:00,69.0,67.0,30.11,SSW,208,3.0,6.0,93,-99.99,,,-99.99,,2015-08-30 13:36:00,
2015-08-30 09:44:00,69.0,67.0,30.11,SSW,197,3.0,6.0,92,-99.99,,,-99.99,,2015-08-30 13:44:00,
2015-08-30 09:54:00,70.0,67.0,30.10,SSW,200,4.0,6.0,91,-99.99,,,-99.99,,2015-08-30 13:54:00,
2015-08-30 10:04:00,71.0,68.0,30.11,SW,220,4.0,10.0,90,-99.99,,,-99.99,,2015-08-30 14:04:00,
2015-08-30 10:13:00,71.0,68.0,30.11,SSW,209,3.0,8.0,90,-99.99,,,-99.99,,2015-08-30 14:13:00,
2015-08-30 10:23:00,72.0,69.0,30.11,SSW,207,3.0,7.0,89,-99.99,,,-99.99,,2015-08-30 14:23:00,
2015-08-30 10:34:00,72.0,68.0,30.11,South,190,4.0,8.0,88,-99.99,,,-99.99,,2015-08-30 14:34:00,
2015-08-30 10:44:00,72.0,68.0,30.11,South,184,3.0,7.0,88,-99.99,,,-99.99,,2015-08-30 14:44:00,
2015-08-30 10:54:00,73.0,69.0,30.11,SSE,161,3.0,5.0,88,-99.99,,,-99.99,,2015-08-30 14:54:00,
2015-08-30 11:03:00,73.0,69.0,30.11,SSW,194,3.0,6.0,87,-99.99,,,-99.99,,2015-08-30 15:03:00,
2015-08-30 11:13:00,73.0,69.0,30.11,South,184,1.0,6.0,87,-99.99,,,-99.99,,2015-08-30 15:13:00,
2015-08-30 11:23:00,74.0,70.0,30.11,WSW,238,3.0,7.0,86,-99.99,,,-99.99,,2015-08-30 15:23:00,
2015-08-30 11:33:00,75.0,71.0,30.11,SSW,204,1.0,6.0,86,-99.99,,,-99.99,,2015-08-30 15:33:00,
2015-08-30 11:44:00,75.0,70.0,30.11,South,187,2.0,5.0,84,-99.99,,,-99.99,,2015-08-30 15:44:00,
2015-08-30 11:53:00,77.0,71.0,30.11,SSW,198,3.0,8.0,82,-99.99,,,-99.99,,2015-08-30 15:53:00,
2015-08-30 12:04:00,77.0,71.0,30.11,WNW,290,2.0,6.0,83,-99.99,,,-99.99,,2015-08-30 16:04:00,
2015-08-30 12:14:00,78.0,72.0,30.11,South,169,3.0,5.0,81,-99.99,,,-99.99,,2015-08-30 16:14:00,
2015-08-30 12:24:00,78.0,71.0,30.11,SSW,193,3.0,8.0,80,-99.99,,,-99.99,,2015-08-30 16:24:00,
2015-08-30 12:34:00,79.0,72.0,30.11,South,171,4.0,7.0,79,-99.99,,,-99.99,,2015-08-30 16:34:00,
2015-08-30 12:47:00,79.0,72.0,30.11,WSW,239,2.0,6.0,79,-99.99,,,-99.99,,2015-08-30 16:47:00,
2015-08-30 12:54:00,80.0,72.0,30.11,SSW,192,2.0,6.0,78,-99.99,,,-99.99,,2015-08-30 16:54:00,
2015-08-30 13:04:00,80.0,72.0,30.11,West,263,2.0,8.0,78,-99.99,,,-99.99,,2015-08-30 17:04:00,
2015-08-30 13:15:00,81.0,73.0,30.10,WSW,243,1.0,6.0,76,-99.99,,,-99.99,,2015-08-30 17:15:00,
2015-08-30 13:24:00,81.0,72.0,30.10,SSE,157,2.0,5.0,75,-99.99,,,-99.99,,2015-08-30 17:24:00,
2015-08-30 13:34:00,81.0,73.0,30.10,South,169,2.0,8.0,76,-99.99,,,-99.99,,2015-08-30 17:34:00,
2015-08-30 13:54:00,81.0,72.0,30.09,SW,214,4.0,8.0,74,-99.99,,,-99.99,,2015-08-30 17:54:00,
2015-08-30 14:04:00,82.0,72.0,30.09,South,169,2.0,9.0,73,-99.99,,,-99.99,,2015-08-30 18:04:00,
2015-08-30 14:13:00,83.0,72.0,30.08,West,269,3.0,8.0,70,-99.99,,,-99.99,,2015-08-30 18:13:00,
2015-08-30 14:24:00,83.0,73.0,30.08,South,177,3.0,6.0,71,-99.99,,,-99.99,,2015-08-30 18:24:00,
2015-08-30 14:34:00,84.0,72.0,30.08,South,176,2.0,4.0,67,-99.99,,,-99.99,,2015-08-30 18:34:00,
2015-08-30 14:44:00,82.0,71.0,30.08,South,187,2.0,6.0,69,-99.99,,,-99.99,,2015-08-30 18:44:00,
2015-08-30 14:54:00,81.0,71.0,30.07,South,187,1.0,7.0,72,-99.99,,,-99.99,,2015-08-30 18:54:00,
2015-08-30 15:04:00,79.0,69.0,30.07,SE,139,4.0,8.0,71,-99.99,,,-99.99,,2015-08-30 19:04:00,
2015-08-30 15:13:00,77.0,66.0,30.07,South,173,2.0,8.0,69,-99.99,,,-99.99,,2015-08-30 19:13:00,
2015-08-30 15:44:00,78.0,67.0,30.06,SSW,202,2.0,4.0,69,-99.99,,,-99.99,,2015-08-30 19:44:00,
2015-08-30 15:54:00,81.0,69.0,30.06,SSW,202,4.0,7.0,67,-99.99,,,-99.99,,2015-08-30 19:54:00,
2015-08-30 16:04:00,81.0,68.0,30.06,South,185,2.0,7.0,65,-99.99,,,-99.99,,2015-08-30 20:04:00,
2015-08-30 16:13:00,81.0,69.0,30.06,SSW,203,4.0,8.0,67,-99.99,,,-99.99,,2015-08-30 20:13:00,
2015-08-30 16:23:00,82.0,71.0,30.06,South,187,1.0,9.0,69,-99.99,,,-99.99,,2015-08-30 20:23:00,
2015-08-30 16:33:00,81.0,69.0,30.05,SSW,205,5.0,11.0,67,-99.99,,,-99.99,,2015-08-30 20:33:00,
2015-08-30 16:44:00,79.0,66.0,30.05,SSE,159,3.0,10.0,65,-99.99,,,-99.99,,2015-08-30 20:44:00,
2015-08-30 16:54:00,78.0,63.0,30.04,SSE,153,4.0,12.0,61,-99.99,,,-99.99,,2015-08-30 20:54:00,
2015-08-30 17:13:00,78.0,64.0,30.05,SSW,207,3.0,8.0,63,-99.99,,,-99.99,,2015-08-30 21:13:00,
2015-08-30 17:23:00,77.0,65.0,30.04,SSE,155,3.0,9.0,66,-99.99,,,-99.99,,2015-08-30 21:23:00,
2015-08-30 17:34:00,76.0,65.0,30.04,SW,214,4.0,8.0,69,-99.99,,,-99.99,,2015-08-30 21:34:00,
2015-08-30 17:53:00,77.0,67.0,30.04,South,189,2.0,4.0,71,-99.99,,,-99.99,,2015-08-30 21:53:00,
2015-08-30 18:03:00,77.0,67.0,30.04,SSW,205,2.0,4.0,72,-99.99,,,-99.99,,2015-08-30 22:03:00,
2015-08-30 18:13:00,77.0,68.0,30.04,SSW,199,0.0,3.0,73,-99.99,,,-99.99,,2015-08-30 22:13:00,
2015-08-30 18:23:00,77.0,68.0,30.04,SSW,210,0.0,4.0,73,-99.99,,,-99.99,,2015-08-30 22:23:00,
2015-08-30 18:34:00,77.0,68.0,30.04,SSW,210,0.0,0.0,74,-99.99,,,-99.99,,2015-08-30 22:34:00,
2015-08-30 18:44:00,78.0,70.0,30.05,SSW,210,0.0,0.0,76,-99.99,,,-99.99,,2015-08-30 22:44:00,
2015-08-30 18:56:00,78.0,69.0,30.05,SSW,210,0.0,0.0,74,-99.99,,,-99.99,,2015-08-30 22:56:00,
2015-08-30 19:03:00,78.0,70.0,30.05,SSW,210,0.0,0.0,76,-99.99,,,-99.99,,2015-08-30 23:03:00,
2015-08-30 19:13:00,78.0,70.0,30.05,SSW,210,0.0,0.0,76,-99.99,,,-99.99,,2015-08-30 23:13:00,
2015-08-30 19:23:00,78.0,70.0,30.05,SSW,210,0.0,0.0,77,-99.99,,,-99.99,,2015-08-30 23:23:00,
2015-08-30 19:36:00,78.0,70.0,30.05,SSW,210,0.0,0.0,76,-99.99,,,-99.99,,2015-08-30 23:36:00,
2015-08-30 19:53:00,78.0,70.0,30.05,SSW,210,0.0,0.0,76,-99.99,,,-99.99,,2015-08-30 23:53:00,
2015-08-30 20:04:00,78.0,70.0,30.05,SSW,210,0.0,0.0,77,-99.99,,,-99.99,,2015-08-31 00:04:00,
2015-08-30 20:13:00,77.0,70.0,30.05,South,190,1.0,3.0,78,-99.99,,,-99.99,,2015-08-31 00:13:00,
2015-08-30 20:23:00,77.0,70.0,30.05,South,190,0.0,2.0,79,-99.99,,,-99.99,,2015-08-31 00:23:00,
2015-08-30 20:33:00,77.0,70.0,30.06,South,190,0.0,0.0,79,-99.99,,,-99.99,,2015-08-31 00:33:00,